Weather History for KFYV - August, 2013

Change the Weather History Date:

Monday, August 5, 2013

  Actual Average Record
Temperature  
Mean Temperature 83 °F 78 °F  
Max Temperature 91 °F 90 °F 107 °F (2011)
Min Temperature 74 °F 66 °F 51 °F (1974)
Cooling Degree Days 18 13  
Month to date cooling degree days 66 65  
Year to date cooling degree days 847 814  
Since 1 June cooling degree days 711 701  
Growing Degree Days 32 (Base 50)    
Moisture  
Dew Point 73 °F    
Average Humidity 75    
Maximum Humidity 87    
Minimum Humidity 63    
Precipitation  
Precipitation 0.01 in 0.10 in 2.93 in (1950)
Month to date precipitation 0.93 0.49  
Year to date precipitation 29.18 29.14  
Sea Level Pressure  
Sea Level Pressure 29.93 in    
Wind  
Wind Speed 8 mph (South)    
Max Wind Speed 16 mph    
Max Gust Speed 24 mph    
Visibility 10 miles    
Events Rain    
T = Trace of Precipitation, MM = Missing Value Source: NWS Daily Summary

Daily Weather History Graph

Daily Weather History Graph

Search for Another Location

Airport or City:

Trip Planner

Search our weather history database for the weather conditions in past years. The results will help you decide how hot, cold, wet, or windy it might be!

Date:

Astronomy

Aug. 05, 2013 Rise Set
Actual Time 6:27 AM CDT 8:17 PM CDT
Civil Twilight 5:59 AM CDT 8:45 PM CDT
Nautical Twilight 5:25 AM CDT 9:18 PM CDT
Astronomical Twilight 4:49 AM CDT 9:54 PM CDT
Moon 5:22 AM CDT (8/5) 7:19 PM CDT (8/5)
Length of Visible Light 14h 45m
Length of Day
13h 50m
Waning Crescent, 1% of the Moon is Illuminated
Aug 5
Waning Crescent
Aug 6
New
Aug 14
First Quarter
Aug 20
Full
Aug 28
Last Quarter

Hourly Weather History & Observations

Time (CDT) Temp. Heat Index Dew Point Humidity Pressure Visibility Wind Dir Wind Speed Gust Speed Precip Events Conditions
12:53 AM 75.0 °F - 68.0 °F 79% 30.01 in 10.0 mi SSE 5.8 mph - N/A   Clear
1:53 AM 75.0 °F - 69.1 °F 82% 29.99 in 10.0 mi South 9.2 mph - N/A   Mostly Cloudy
2:53 AM 75.9 °F - 70.0 °F 82% 29.97 in 10.0 mi SSE 8.1 mph - N/A   Partly Cloudy
3:53 AM 75.9 °F - 70.0 °F 82% 29.97 in 10.0 mi South 11.5 mph - N/A   Scattered Clouds
4:53 AM 75.0 °F - 70.0 °F 84% 29.97 in 10.0 mi South 9.2 mph - N/A   Clear
5:53 AM 75.0 °F - 71.1 °F 87% 29.96 in 10.0 mi South 10.4 mph 16.1 mph N/A   Partly Cloudy
6:53 AM 75.0 °F - 71.1 °F 87% 29.98 in 10.0 mi South 4.6 mph - N/A   Overcast
7:53 AM 75.0 °F - 71.1 °F 87% 29.99 in 10.0 mi South 8.1 mph - 0.00 in Rain Light Rain
8:53 AM 75.9 °F - 73.0 °F 91% 29.97 in 10.0 mi South 4.6 mph - 0.01 in   Mostly Cloudy
9:53 AM 82.0 °F 87.9 °F 73.9 °F 76% 29.96 in 10.0 mi SSW 9.2 mph - N/A   Scattered Clouds
10:53 AM 84.9 °F 92.1 °F 73.9 °F 69% 29.96 in 10.0 mi SSW 9.2 mph - N/A   Partly Cloudy
11:53 AM 84.9 °F 90.7 °F 72.0 °F 65% 29.95 in 10.0 mi SW 10.4 mph 18.4 mph N/A   Overcast
12:53 PM 87.1 °F 94.5 °F 73.0 °F 63% 29.93 in 10.0 mi SSW 11.5 mph - N/A   Mostly Cloudy
1:53 PM 89.1 °F 99.1 °F 75.0 °F 63% 29.92 in 10.0 mi South 12.7 mph - N/A   Partly Cloudy
2:53 PM 88.0 °F 95.6 °F 73.0 °F 61% 29.91 in 10.0 mi SSW 11.5 mph - N/A   Partly Cloudy
3:53 PM 89.1 °F 99.1 °F 75.0 °F 63% 29.89 in 10.0 mi SSW 12.7 mph - N/A   Mostly Cloudy
4:53 PM 90.0 °F 100.2 °F 75.0 °F 61% 29.88 in 10.0 mi South 9.2 mph 23.0 mph N/A   Clear
5:53 PM 90.0 °F 100.2 °F 75.0 °F 61% 29.86 in 10.0 mi South 11.5 mph - N/A   Clear
6:53 PM 87.1 °F 97.3 °F 75.9 °F 69% 29.85 in 10.0 mi South 8.1 mph - N/A   Clear
7:53 PM 86.0 °F 96.0 °F 75.9 °F 72% 29.85 in 10.0 mi Calm Calm - N/A   Clear
8:53 PM 82.9 °F 90.2 °F 75.0 °F 77% 29.86 in 10.0 mi Calm Calm - N/A   Clear
9:53 PM 81.0 °F 86.7 °F 75.0 °F 82% 29.86 in 10.0 mi South 6.9 mph - N/A   Clear
10:53 PM 81.0 °F 86.7 °F 75.0 °F 82% 29.87 in 10.0 mi Calm Calm - N/A   Clear
11:53 PM 81.0 °F 86.2 °F 73.9 °F 79% 29.87 in 10.0 mi South 9.2 mph - N/A   Partly Cloudy